No particular awareness of the weather is required.    There are no Weather-warnings


Meteo18 Weather Cam more information Meteo18 Weather Cam


Thunder radar more information blitzortung!


Rain radar more information rain snow radar


Visit our other weather sites:

Template documentation
and downloads

And another site



Weather Underground History page Text

Daily Summary for January 25, 2018 Units:  English    Metric   Both
« Previous Day
Next Day »
Daily Weekly Monthly Yearly Custom
  High: Low: Average:
Temperature: TemperatureC °F 5.9 °F 8.1 °F
Dew Point: DewpointC °F 5.5 °F 7.2 °F
Humidity: Humidity % 86 % 94 %
Wind Speed: WindSpeedKMH mph 0.0 mph 2.9 mph
Wind Gust: WindSpeedGustKMH mph - -
Wind:- - SSW
Pressure: PressurehPa in 1012.8 in -
Precipitation: 29.7 in    
Historical Graphs
 
 
Tabular Data for January 25, 2018
Time Temperature Dew Point Pressure Wind Wind Speed Wind Gust Humidity Rainfall Rate (Hourly)
TemperatureC °F DewpointC °F PressurehPa in Calm     Humidity % HourlyPrecipMM in
00:02 10.1 °F 8.0 °F 1018.8 in SSW 9.7 mph 17.7 mph 87 % 0.0 in
00:08 10.1 °F 8.0 °F 1018.8 in SW 11.1 mph 16.1 mph 87 % 0.0 in
00:14 10.2 °F 8.1 °F 1018.8 in SSW 11.1 mph 17.7 mph 87 % 0.0 in
00:20 10.2 °F 8.1 °F 1018.8 in SSW 13.0 mph 17.7 mph 87 % 0.0 in
00:26 10.3 °F 8.2 °F 1018.8 in SSW 11.1 mph 17.7 mph 87 % 0.0 in
00:32 10.3 °F 8.1 °F 1018.8 in SSW 14.3 mph 16.1 mph 86 % 0.0 in
00:38 10.3 °F 8.2 °F 1018.8 in SW 14.3 mph 17.7 mph 87 % 0.0 in
00:44 10.3 °F 8.2 °F 1018.8 in SSW 7.9 mph 12.9 mph 87 % 0.0 in
00:50 10.2 °F 8.1 °F 1018.8 in SSW 6.4 mph 9.7 mph 87 % 0.0 in
00:56 10.2 °F 8.1 °F 1018.8 in SSW 7.9 mph 12.9 mph 87 % 0.0 in
01:02 10.2 °F 8.1 °F 1018.8 in SSW 6.4 mph 11.3 mph 87 % 0.0 in
01:08 10.2 °F 8.3 °F 1018.8 in SSW 6.4 mph 11.3 mph 88 % 0.0 in
01:14 10.1 °F 8.2 °F 1018.8 in SSW 13.0 mph 13.0 mph 88 % 0.0 in
01:20 10.1 °F 8.2 °F 1018.8 in SSW 7.9 mph 11.3 mph 88 % 0.0 in
01:26 10.0 °F 8.3 °F 1018.8 in SSW 6.4 mph 9.7 mph 89 % 0.0 in
01:32 9.9 °F 8.2 °F 1018.8 in SW 7.9 mph 11.3 mph 89 % 0.0 in
01:38 9.9 °F 8.2 °F 1018.8 in SSW 6.4 mph 8.0 mph 89 % 0.0 in
01:44 9.9 °F 8.2 °F 1018.8 in SSW 4.7 mph 6.4 mph 89 % 0.0 in
01:50 9.9 °F 8.2 °F 1018.8 in SSW 4.7 mph 8.0 mph 89 % 0.0 in
01:56 9.9 °F 8.2 °F 1018.8 in SSW 4.7 mph 6.4 mph 89 % 0.0 in
02:02 9.9 °F 8.2 °F 1018.8 in SSW 4.7 mph 8.0 mph 89 % 0.0 in
02:08 9.8 °F 8.1 °F 1018.8 in South 1.4 mph 8.0 mph 89 % 0.0 in
02:14 9.8 °F 8.1 °F 1018.8 in SSW 6.4 mph 8.0 mph 89 % 0.0 in
02:20 9.8 °F 8.1 °F 1018.8 in South 4.7 mph 6.4 mph 89 % 0.0 in
02:26 9.8 °F 8.1 °F 1018.5 in SSE 4.7 mph 6.4 mph 89 % 0.0 in
02:32 9.8 °F 8.1 °F 1018.5 in SSW 3.2 mph 8.0 mph 89 % 0.0 in
02:38 9.7 °F 8.0 °F 1018.5 in South 3.2 mph 9.7 mph 89 % 0.0 in
02:44 9.7 °F 8.0 °F 1018.5 in South 3.2 mph 8.0 mph 89 % 0.0 in
02:50 9.7 °F 8.0 °F 1018.5 in South 3.2 mph 4.8 mph 89 % 0.0 in
02:56 9.7 °F 8.0 °F 1018.5 in SSE 6.4 mph 6.4 mph 89 % 0.0 in
03:02 9.6 °F 8.0 °F 1018.5 in ESE 4.7 mph 6.4 mph 90 % 0.0 in
03:08 9.6 °F 8.0 °F 1018.2 in SSE 1.4 mph 8.0 mph 90 % 0.0 in
03:14 9.6 °F 8.0 °F 1018.2 in South 3.2 mph 8.0 mph 90 % 0.0 in
03:20 9.6 °F 8.0 °F 1018.2 in SSW 4.7 mph 4.8 mph 90 % 0.0 in
03:26 9.6 °F 8.0 °F 1017.8 in South 6.4 mph 6.4 mph 90 % 0.0 in
03:32 9.6 °F 8.0 °F 1017.8 in SSE 3.2 mph 8.0 mph 90 % 0.0 in
03:38 9.6 °F 8.0 °F 1017.8 in South 6.4 mph 9.7 mph 90 % 0.0 in
03:44 9.6 °F 8.0 °F 1017.8 in SW 4.7 mph 6.4 mph 90 % 0.0 in
03:50 9.6 °F 8.0 °F 1017.8 in SW 3.2 mph 9.7 mph 90 % 0.0 in
03:56 9.6 °F 8.0 °F 1017.8 in South 4.7 mph 6.4 mph 90 % 0.0 in
04:02 9.5 °F 7.9 °F 1017.5 in South 4.7 mph 6.4 mph 90 % 0.0 in
04:08 9.5 °F 7.8 °F 1017.5 in SSW 3.2 mph 6.4 mph 89 % 0.0 in
04:14 9.5 °F 7.8 °F 1017.5 in South 3.2 mph 6.4 mph 89 % 0.0 in
04:20 9.4 °F 7.7 °F 1017.5 in SSW 3.2 mph 3.2 mph 89 % 0.0 in
04:26 9.4 °F 7.8 °F 1017.5 in SSW 3.2 mph 4.8 mph 90 % 0.0 in
04:32 9.4 °F 7.8 °F 1017.5 in SSW 4.7 mph 9.7 mph 90 % 0.0 in
04:38 9.4 °F 7.7 °F 1017.5 in SSW 3.2 mph 6.4 mph 89 % 0.0 in
04:44 9.4 °F 7.7 °F 1017.5 in SSW 4.7 mph 6.4 mph 89 % 0.0 in
04:50 9.4 °F 7.7 °F 1017.5 in SSW 9.7 mph 9.7 mph 89 % 0.0 in
04:56 9.4 °F 7.7 °F 1017.5 in SSW 4.7 mph 6.4 mph 89 % 0.0 in
05:02 9.4 °F 7.7 °F 1017.2 in SSW 3.2 mph 8.0 mph 89 % 0.0 in
05:08 9.3 °F 7.6 °F 1017.2 in SSW 1.4 mph 4.8 mph 89 % 0.0 in
05:14 9.2 °F 7.6 °F 1017.5 in West 3.2 mph 8.0 mph 90 % 0.0 in
05:20 9.3 °F 7.7 °F 1017.2 in SSW 1.4 mph 6.4 mph 90 % 0.0 in
05:26 9.3 °F 7.7 °F 1017.2 in SSW 1.4 mph 3.2 mph 90 % 0.0 in
05:32 9.2 °F 7.6 °F 1017.2 in SW 3.2 mph 3.2 mph 90 % 0.0 in
05:38 9.2 °F 7.6 °F 1017.2 in SW 6.4 mph 6.4 mph 90 % 0.0 in
05:44 9.2 °F 7.5 °F 1017.5 in West 3.2 mph 6.4 mph 89 % 0.0 in
05:50 9.2 °F 7.5 °F 1017.5 in WSW 4.7 mph 8.0 mph 89 % 0.0 in
05:56 9.2 °F 7.5 °F 1017.2 in SW 4.7 mph 8.0 mph 89 % 0.0 in
06:02 9.2 °F 7.5 °F 1017.2 in SW 4.7 mph 4.8 mph 89 % 0.0 in
06:08 9.1 °F 7.4 °F 1017.2 in SW 3.2 mph 6.4 mph 89 % 0.0 in
06:14 9.1 °F 7.5 °F 1017.2 in SW 6.4 mph 6.4 mph 90 % 0.0 in
06:20 9.0 °F 7.4 °F 1017.2 in SSW 3.2 mph 6.4 mph 90 % 0.0 in
06:26 8.9 °F 7.5 °F 1017.2 in SW 7.9 mph 8.0 mph 91 % 0.0 in
06:32 8.8 °F 7.4 °F 1017.2 in SW 11.1 mph 14.5 mph 91 % 0.0 in
06:38 8.8 °F 7.6 °F 1017.2 in SW 9.7 mph 12.9 mph 92 % 0.0 in
06:44 8.7 °F 7.6 °F 1017.2 in SW 9.7 mph 11.3 mph 93 % 0.0 in
06:50 8.6 °F 7.7 °F 1016.8 in SW 3.2 mph 11.3 mph 94 % 0.3 in
06:56 8.5 °F 7.6 °F 1016.8 in SW 7.9 mph 11.3 mph 94 % 0.5 in
07:02 8.4 °F 7.6 °F 1016.8 in SSW 6.4 mph 9.7 mph 95 % 0.5 in
07:08 8.4 °F 7.6 °F 1016.8 in South 6.4 mph 8.0 mph 95 % 0.5 in
07:14 8.3 °F 7.5 °F 1016.8 in SW 7.9 mph 8.0 mph 95 % 0.8 in
07:20 8.3 °F 7.7 °F 1016.8 in SSW 3.2 mph 6.4 mph 96 % 0.8 in
07:26 8.2 °F 7.6 °F 1016.8 in South 3.2 mph 6.4 mph 96 % 1.0 in
07:32 8.2 °F 7.6 °F 1016.8 in South 4.7 mph 4.8 mph 96 % 1.0 in
07:38 8.2 °F 7.6 °F 1016.8 in South 4.7 mph 8.0 mph 96 % 1.0 in
07:44 8.2 °F 7.6 °F 1016.5 in SSW 4.7 mph 6.4 mph 96 % 1.3 in
07:51 8.2 °F 7.6 °F 1016.5 in SW 3.2 mph 6.4 mph 96 % 1.0 in
07:57 8.2 °F 7.6 °F 1016.5 in SSW 3.2 mph 4.8 mph 96 % 1.0 in
08:03 8.2 °F 7.8 °F 1016.5 in South 1.4 mph 4.8 mph 97 % 1.0 in
08:09 8.2 °F 7.8 °F 1016.5 in South 1.4 mph 4.8 mph 97 % 0.8 in
08:15 8.2 °F 7.8 °F 1016.1 in Calm   3.2 mph 97 % 0.8 in
08:21 8.2 °F 7.8 °F 1016.1 in Calm   3.2 mph 97 % 1.0 in
08:27 8.2 °F 7.8 °F 1016.1 in Calm   1.6 mph 97 % 0.8 in
08:33 8.2 °F 7.8 °F 1016.1 in Calm   1.6 mph 97 % 0.8 in
08:39 8.2 °F 7.8 °F 1016.1 in Calm   1.6 mph 97 % 1.0 in
08:45 8.2 °F 7.8 °F 1016.1 in Calm   1.6 mph 97 % 0.8 in
08:51 8.2 °F 7.8 °F 1016.1 in Calm   1.6 mph 97 % 1.0 in
08:57 8.2 °F 7.8 °F 1016.1 in Calm     97 % 0.8 in
09:03 8.2 °F 7.8 °F 1016.1 in Calm   1.6 mph 97 % 1.0 in
09:09 8.2 °F 7.8 °F 1015.8 in Calm     97 % 1.3 in
09:15 8.2 °F 7.8 °F 1015.8 in Calm   1.6 mph 97 % 1.0 in
09:21 8.2 °F 7.8 °F 1015.8 in Calm   1.6 mph 97 % 0.8 in
09:27 8.2 °F 7.8 °F 1015.8 in SE 1.4 mph 3.2 mph 97 % 0.8 in
09:33 8.2 °F 7.8 °F 1015.8 in Calm   1.6 mph 97 % 0.8 in
09:39 8.2 °F 7.8 °F 1015.8 in SE 1.4 mph 3.2 mph 97 % 0.5 in
09:45 8.1 °F 7.7 °F 1015.5 in Calm   1.6 mph 97 % 0.8 in
09:51 8.1 °F 7.7 °F 1015.5 in SE 1.4 mph 1.6 mph 97 % 0.5 in
09:57 8.1 °F 7.7 °F 1015.5 in Calm   1.6 mph 97 % 0.5 in
10:03 8.1 °F 7.7 °F 1015.5 in SE 1.4 mph 3.2 mph 97 % 0.5 in
10:09 8.1 °F 7.7 °F 1015.5 in SSE 1.4 mph 3.2 mph 97 % 0.3 in
10:15 8.1 °F 7.7 °F 1015.5 in Calm   1.6 mph 97 % 0.3 in
10:21 8.1 °F 7.7 °F 1015.5 in Calm   1.6 mph 97 % 0.3 in
10:27 8.1 °F 7.7 °F 1015.5 in SSW 1.4 mph 3.2 mph 97 % 0.3 in
10:33 8.1 °F 7.7 °F 1015.5 in SSW 1.4 mph 3.2 mph 97 % 0.3 in
10:39 8.1 °F 7.7 °F 1015.5 in SSW 1.4 mph 1.6 mph 97 % 0.5 in
10:45 8.1 °F 7.5 °F 1015.5 in SSW 1.4 mph 3.2 mph 96 % 0.5 in
10:51 8.2 °F 7.6 °F 1015.5 in SW 3.2 mph 3.2 mph 96 % 0.5 in
10:57 8.2 °F 7.6 °F 1015.5 in SSE 1.4 mph 4.8 mph 96 % 0.8 in
11:03 8.2 °F 7.6 °F 1015.5 in South 1.4 mph 4.8 mph 96 % 0.8 in
11:10 8.2 °F 7.6 °F 1015.5 in SW 1.4 mph 4.8 mph 96 % 1.0 in
11:16 8.2 °F 7.6 °F 1015.5 in SW 1.4 mph 3.2 mph 96 % 1.0 in
11:22 8.2 °F 7.6 °F 1015.5 in South 1.4 mph 3.2 mph 96 % 1.3 in
11:28 8.2 °F 7.6 °F 1015.5 in SE 1.4 mph 3.2 mph 96 % 1.5 in
11:34 8.2 °F 7.6 °F 1015.1 in SSW 3.2 mph 3.2 mph 96 % 1.5 in
11:40 8.3 °F 7.7 °F 1015.1 in SSE 1.4 mph 1.6 mph 96 % 1.5 in
11:46 8.3 °F 7.5 °F 1015.1 in Calm   3.2 mph 95 % 1.5 in
11:52 8.2 °F 7.4 °F 1015.1 in Calm   3.2 mph 95 % 1.5 in
11:58 8.2 °F 7.4 °F 1015.1 in SSW 3.2 mph 3.2 mph 95 % 1.5 in
12:04 8.2 °F 7.6 °F 1015.1 in Calm   1.6 mph 96 % 2.3 in
12:10 8.2 °F 7.6 °F 1015.1 in Calm   1.6 mph 96 % 2.3 in
12:16 8.2 °F 7.6 °F 1015.1 in SW 3.2 mph 3.2 mph 96 % 2.5 in
12:22 8.2 °F 7.6 °F 1015.1 in SSW 1.4 mph 1.6 mph 96 % 3.0 in
12:28 8.2 °F 7.6 °F 1015.1 in Calm   3.2 mph 96 % 3.3 in
12:34 8.2 °F 7.6 °F 1015.1 in SSW 1.4 mph 3.2 mph 96 % 3.3 in
12:40 8.2 °F 7.6 °F 1014.8 in SSW 1.4 mph 3.2 mph 96 % 3.6 in
12:46 8.2 °F 7.6 °F 1015.1 in SSW 1.4 mph 3.2 mph 96 % 3.8 in
12:52 8.3 °F 7.7 °F 1014.8 in SSW 3.2 mph 3.2 mph 96 % 3.6 in
12:58 8.2 °F 7.6 °F 1014.8 in Calm   1.6 mph 96 % 3.6 in
13:04 8.2 °F 7.6 °F 1014.8 in South 1.4 mph 4.8 mph 96 % 3.0 in
13:10 8.3 °F 7.7 °F 1014.4 in South 1.4 mph 3.2 mph 96 % 3.0 in
13:16 8.3 °F 7.7 °F 1014.4 in Calm     96 % 2.5 in
13:22 8.3 °F 7.7 °F 1014.4 in Calm     96 % 2.3 in
13:28 8.3 °F 7.7 °F 1014.1 in Calm     96 % 1.8 in
13:34 8.3 °F 7.7 °F 1014.1 in Calm     96 % 1.5 in
13:40 8.4 °F 7.8 °F 1013.8 in Calm     96 % 1.3 in
13:46 8.4 °F 7.8 °F 1013.8 in Calm     96 % 1.0 in
13:52 8.4 °F 7.8 °F 1013.4 in Calm     96 % 1.0 in
13:58 8.4 °F 7.8 °F 1013.4 in Calm     96 % 0.8 in
14:04 8.5 °F 7.9 °F 1013.4 in Calm     96 % 1.0 in
14:10 8.6 °F 8.0 °F 1013.4 in Calm     96 % 1.3 in
14:16 8.6 °F 8.0 °F 1013.4 in Calm   1.6 mph 96 % 1.3 in
14:22 8.6 °F 8.0 °F 1013.4 in Calm   1.6 mph 96 % 1.5 in
14:28 8.7 °F 8.1 °F 1013.4 in South 1.4 mph 3.2 mph 96 % 2.0 in
14:34 8.6 °F 8.0 °F 1013.4 in SSE 1.4 mph 3.2 mph 96 % 2.3 in
14:40 8.6 °F 8.0 °F 1013.1 in Calm   1.6 mph 96 % 2.3 in
14:46 8.6 °F 8.0 °F 1013.1 in Calm     96 % 2.8 in
14:52 8.6 °F 8.0 °F 1013.1 in Calm     96 % 3.0 in
14:58 8.7 °F 8.3 °F 1013.1 in Calm     97 % 3.3 in
15:04 8.7 °F 8.3 °F 1013.1 in Calm     97 % 3.3 in
15:10 8.7 °F 8.3 °F 1013.1 in SE 1.4 mph 6.4 mph 97 % 3.3 in
15:16 8.7 °F 8.3 °F 1013.1 in South 1.4 mph 1.6 mph 97 % 3.6 in
15:22 8.7 °F 8.3 °F 1013.1 in SW 1.4 mph 3.2 mph 97 % 3.3 in
15:28 8.7 °F 8.3 °F 1013.4 in SSW 3.2 mph 8.0 mph 97 % 3.6 in
15:34 8.8 °F 8.3 °F 1013.4 in SW 4.7 mph 9.7 mph 97 % 3.6 in
15:40 8.7 °F 8.3 °F 1013.4 in WNW 6.4 mph 8.0 mph 97 % 3.8 in
15:46 8.4 °F 7.8 °F 1013.4 in Calm   1.6 mph 96 % 3.8 in
15:52 8.1 °F 7.5 °F 1013.4 in West 1.4 mph 1.6 mph 96 % 4.1 in
15:58 8.0 °F 7.4 °F 1013.1 in NE 3.2 mph 6.4 mph 96 % 4.1 in
16:04 8.0 °F 7.4 °F 1013.1 in NE 3.2 mph 8.0 mph 96 % 4.1 in
16:10 7.9 °F 7.3 °F 1013.1 in ENE 4.7 mph 4.8 mph 96 % 3.8 in
16:16 7.9 °F 7.3 °F 1012.8 in NNE 17.7 mph 19.3 mph 96 % 3.6 in
16:22 7.8 °F 7.2 °F 1013.1 in NNE 6.4 mph 16.1 mph 96 % 3.6 in
16:28 7.8 °F 7.2 °F 1013.4 in NW 6.4 mph 12.9 mph 96 % 3.3 in
16:35 7.6 °F 7.0 °F 1013.4 in NNE 9.7 mph 25.7 mph 96 % 4.8 in
16:41 7.2 °F 6.5 °F 1013.4 in NNW 13.0 mph 24.1 mph 95 % 5.3 in
16:47 7.1 °F 6.4 °F 1013.4 in NNW 9.7 mph 16.1 mph 95 % 5.6 in
16:53 7.0 °F 6.3 °F 1013.4 in NW 7.9 mph 11.3 mph 95 % 5.1 in
16:59 6.9 °F 6.2 °F 1013.4 in NNW 16.3 mph 16.3 mph 95 % 5.1 in
17:05 6.9 °F 6.2 °F 1013.4 in North 7.9 mph 9.7 mph 95 % 5.1 in
17:11 6.9 °F 6.2 °F 1013.4 in North 7.9 mph 12.9 mph 95 % 5.1 in
17:17 6.9 °F 6.2 °F 1013.4 in North 6.4 mph 11.3 mph 95 % 5.3 in
17:23 6.9 °F 6.2 °F 1013.4 in NNW 6.4 mph 8.0 mph 95 % 5.6 in
17:29 6.9 °F 6.2 °F 1013.8 in NNW 6.4 mph 8.0 mph 95 % 5.1 in
17:35 6.9 °F 6.3 °F 1013.4 in NE 3.2 mph 9.7 mph 96 % 3.6 in
17:41 6.8 °F 6.2 °F 1013.4 in NNE 7.9 mph 9.7 mph 96 % 3.3 in
17:47 6.8 °F 6.2 °F 1013.4 in NNW 4.7 mph 9.7 mph 96 % 3.0 in
17:53 6.8 °F 6.2 °F 1013.4 in WNW 1.4 mph 11.3 mph 96 % 2.8 in
17:59 6.8 °F 6.2 °F 1013.4 in WNW 4.7 mph 9.7 mph 96 % 2.5 in
18:05 6.8 °F 6.2 °F 1013.4 in NNE 3.2 mph 8.0 mph 96 % 2.5 in
18:11 6.8 °F 6.2 °F 1013.8 in Calm   6.4 mph 96 % 2.3 in
18:17 6.7 °F 6.1 °F 1013.8 in North 3.2 mph 6.4 mph 96 % 2.3 in
18:23 6.7 °F 6.1 °F 1013.8 in NE 1.4 mph 4.8 mph 96 % 1.8 in
18:29 6.7 °F 6.1 °F 1014.1 in Calm   3.2 mph 96 % 1.5 in
18:35 6.7 °F 6.1 °F 1014.1 in Calm   1.6 mph 96 % 1.5 in
18:41 6.7 °F 6.1 °F 1014.1 in Calm     96 % 1.3 in
18:47 6.7 °F 6.1 °F 1014.1 in Calm     96 % 1.3 in
18:53 6.6 °F 6.0 °F 1014.1 in Calm     96 % 1.3 in
18:59 6.7 °F 6.1 °F 1014.4 in Calm   1.6 mph 96 % 1.3 in
19:05 6.6 °F 6.0 °F 1014.4 in Calm   1.6 mph 96 % 1.3 in
19:11 6.6 °F 6.0 °F 1014.4 in Calm     96 % 1.5 in
19:17 6.6 °F 6.0 °F 1014.4 in Calm     96 % 1.5 in
19:23 6.6 °F 6.0 °F 1014.4 in Calm     96 % 1.8 in
19:29 6.6 °F 6.0 °F 1014.4 in Calm     96 % 1.8 in
19:35 6.6 °F 6.0 °F 1014.4 in Calm     96 % 1.8 in
19:41 6.5 °F 5.9 °F 1014.4 in Calm     96 % 2.0 in
19:48 6.5 °F 5.9 °F 1014.4 in Calm     96 % 2.0 in
19:54 6.5 °F 5.9 °F 1014.4 in Calm     96 % 2.0 in
20:00 6.5 °F 6.1 °F 1014.8 in Calm     97 % 2.0 in
20:06 6.6 °F 6.2 °F 1014.8 in Calm     97 % 2.0 in
20:12 6.6 °F 6.2 °F 1014.8 in SW 1.4 mph 1.6 mph 97 % 1.8 in
20:18 6.6 °F 6.2 °F 1014.8 in WSW 1.4 mph 3.2 mph 97 % 1.8 in
20:24 6.6 °F 6.2 °F 1015.1 in SW 3.2 mph 3.2 mph 97 % 1.5 in
20:30 6.5 °F 6.1 °F 1015.1 in Calm   3.2 mph 97 % 1.5 in
20:36 6.4 °F 5.8 °F 1015.1 in WSW 3.2 mph 3.2 mph 96 % 1.5 in
20:42 6.3 °F 5.9 °F 1015.1 in Calm   1.6 mph 97 % 1.5 in
20:48 6.3 °F 5.9 °F 1014.8 in Calm     97 % 1.3 in
20:54 6.3 °F 5.9 °F 1014.8 in Calm   1.6 mph 97 % 1.5 in
21:00 6.2 °F 5.8 °F 1014.8 in Calm   1.6 mph 97 % 1.3 in
21:06 6.2 °F 5.8 °F 1014.8 in Calm   1.6 mph 97 % 1.0 in
21:12 6.2 °F 5.8 °F 1014.8 in Calm     97 % 0.8 in
21:18 6.2 °F 5.8 °F 1014.8 in Calm     97 % 0.5 in
21:24 6.2 °F 5.8 °F 1015.1 in Calm     97 % 0.5 in
21:30 6.2 °F 5.8 °F 1015.1 in Calm     97 % 0.5 in
21:36 6.1 °F 5.7 °F 1014.8 in Calm     97 % 0.5 in
21:42 6.1 °F 5.7 °F 1015.1 in Calm     97 % 0.3 in
21:48 6.1 °F 5.7 °F 1015.1 in Calm     97 % 0.3 in
21:54 6.0 °F 5.6 °F 1015.1 in Calm     97 % 0.0 in
22:00 6.0 °F 5.6 °F 1015.1 in Calm     97 % 0.0 in
22:06 6.0 °F 5.6 °F 1015.1 in Calm     97 % 0.0 in
22:12 6.1 °F 5.7 °F 1015.1 in Calm     97 % 0.3 in
22:18 6.1 °F 5.7 °F 1015.1 in Calm     97 % 0.3 in
22:24 6.1 °F 5.7 °F 1015.1 in Calm     97 % 0.3 in
22:30 6.1 °F 5.7 °F 1015.5 in Calm     97 % 0.3 in
22:36 6.1 °F 5.7 °F 1015.5 in Calm     97 % 0.3 in
22:42 6.1 °F 5.7 °F 1015.5 in Calm     97 % 0.3 in
22:48 6.1 °F 5.7 °F 1015.5 in Calm     97 % 0.3 in
22:54 6.1 °F 5.7 °F 1015.5 in Calm     97 % 0.3 in
23:00 6.1 °F 5.7 °F 1015.8 in Calm     97 % 0.3 in
23:06 6.1 °F 5.7 °F 1015.8 in Calm     97 % 0.3 in
23:12 6.1 °F 5.7 °F 1016.1 in Calm     97 % 0.0 in
23:18 6.1 °F 5.7 °F 1016.1 in SW 1.4 mph 1.6 mph 97 % 0.0 in
23:24 6.1 °F 5.7 °F 1016.1 in SW 1.4 mph 1.6 mph 97 % 0.3 in
23:30 6.1 °F 5.7 °F 1016.1 in SW 1.4 mph 3.2 mph 97 % 0.3 in
23:36 6.0 °F 5.6 °F 1016.1 in Calm   3.2 mph 97 % 0.3 in
23:42 5.9 °F 5.5 °F 1016.1 in West 1.4 mph 1.6 mph 97 % 0.3 in
23:48 5.9 °F 5.5 °F 1016.1 in Calm   1.6 mph 97 % 0.5 in
23:54 5.9 °F 5.5 °F 1015.8 in Calm   1.6 mph 97 % 0.5 in
Meteo18
Compliments of Weather Underground - 4 mb

Script developed by  Jim McMurry - jmcmurry@mwt.net Adapted for the template by  Wim van der Kuil - Leuven-Template.eu

You find our weather info also at:

European Weather Network

Weather Underground

Equipment we use:

Weather-station
Davis Vue

Weather-program
Meteobridge

Weather-server
Raspberry PI 2 B+

Provider
1 and 1

Davis Vue

Meteobridge

Raspberry PI 2 B+

1 and 1